Home   Weather   Costa Mesa   Past weeks

Flag for USA Past Weather in Costa Mesa, California, USA — Yesterday and Last 2 Weeks

Now
55 °F

Rain. Fog.


Feels Like: 50 °F
Forecast: 54 / 58 °F
Wind: 23 mph from South

Location: John Wayne Airport-Orange County Airport

Current Time: Jan 20, 2017 at 12:32:36 pm

Latest Report: Jan 20, 2017 at 11:53 am


Visibility: 1 mi

Pressure: 29.53 "Hg

Humidity: 93%

Dew Point: 53 °F

Location of Costa MesaLocation

Past Weather in Costa Mesa — Graph

°F

Costa Mesa Temperature Yesterday

Maximum temperature yesterday: 61 °F (at 11:53 am)
Minimum temperature yesterday: 53 °F (at 4:04 am)
Average temperature yesterday: 57 °F

High & Low Weather Summary for the Past Weeks

 TemperatureHumidityPressure
High76 °F (Jan 8, 1:53 pm)100% (Jan 5, 2:07 pm)30.20 "Hg (Jan 5, 2:07 pm)
Low46 °F (Jan 17, 4:53 am)29% (Jan 7, 2:53 pm)29.62 "Hg (Jan 20, 10:53 am)
Average57 °F83%30.04 "Hg
* Reported Jan 5 11:08 am — Jan 20 11:08 am, Costa Mesa, Weather by CustomWeather, © 2017

Note: Actual official high and low records may vary slightly from our data, if they occured in-between our weather recording intervals... More about our weather records

Advertising

Costa Mesa Weather History for the Previous 24 Hours

Scroll right to see more
 ConditionsComfort  
Time TempWeatherWind HumidityBarometerVisibility
11:08 am
Fri, Jan 20
55 °FLight rain. Fog.16 mph90%29.63 "Hg4 mi
10:53 am55 °FLight rain. Fog.16 mph93%29.62 "Hg4 mi
10:42 am55 °FRain. Fog.24 mph93%29.64 "Hg2 mi
10:29 am56 °FLight rain. Fog.14 mph93%29.66 "Hg3 mi
9:53 am54 °FLight rain. Broken clouds.9 mph93%29.70 "Hg8 mi
9:27 am54 °FLight rain. Overcast.9 mph93%29.72 "Hg8 mi
9:07 am53 °FLight rain. Fog.12 mph96%29.73 "Hg3 mi
8:53 am54 °FLight rain. Fog.13 mph93%29.74 "Hg4 mi
8:18 am53 °FRain. Fog.7 mph96%29.74 "Hg4 mi
7:53 am52 °FLight rain. Fog.9 mph97%29.75 "Hg5 mi
6:53 am53 °FLight rain. Fog.8 mph93%29.78 "Hg6 mi
5:53 am53 °FLight rain. Mostly cloudy.3 mph96%29.80 "Hg10 mi
4:53 am53 °FLight rain. Fog.No wind96%29.80 "Hg5 mi
3:53 am53 °FLight rain. Overcast.7 mph93%29.80 "Hg10 mi
2:53 am54 °FPassing clouds.5 mph90%29.83 "Hg10 mi
1:53 am54 °FLight rain. Fog.5 mph86%29.88 "Hg4 mi
1:35 am54 °FPartly cloudy.No wind97%29.87 "Hg10 mi
1:09 am54 °FRain. Fog.5 mph93%29.86 "Hg2 mi
12:53 am54 °FLight rain. Fog.5 mph90%29.86 "Hg6 mi
11:53 pm
Thu, Jan 19
54 °FPassing clouds.5 mph86%29.87 "Hg10 mi
10:53 pm56 °FLight rain. Fog.7 mph87%29.91 "Hg5 mi
10:43 pm57 °FLight rain. Mostly cloudy.13 mph81%29.91 "Hg3 mi
9:53 pm58 °FPartly cloudy.6 mph75%29.91 "Hg7 mi
9:38 pm57 °FPassing clouds.5 mph81%29.91 "Hg7 mi
8:53 pm58 °FLight rain. Fog.6 mph75%29.91 "Hg6 mi
8:31 pm58 °FPartly cloudy.5 mph75%29.92 "Hg7 mi
8:08 pm58 °FFog.5 mph75%29.92 "Hg6 mi
7:53 pm58 °FPassing clouds.5 mph78%29.92 "Hg7 mi
6:53 pm58 °FPartly cloudy.7 mph72%29.92 "Hg8 mi
5:53 pm58 °FPartly cloudy.7 mph78%29.93 "Hg10 mi
4:53 pm58 °FCool.7 mph75%29.91 "Hg10 mi
3:53 pm59 °FBroken clouds.13 mph72%29.91 "Hg10 mi
2:53 pm61 °FPassing clouds.8 mph62%29.91 "Hg10 mi
1:53 pm61 °FScattered clouds.10 mph62%29.91 "Hg10 mi
12:53 pm61 °FScattered clouds.9 mph70%29.93 "Hg10 mi
Weather by CustomWeather, © 2017

See weather overviewHow to use our weather pages